Weather History for GMMZ - September, 2012

Change the Weather History Date:

Sunday, September 30, 2012

  Actual Average Record
Temperature  
Mean Temperature 68 °F -  
Max Temperature 81 °F 80 °F - ()
Min Temperature 56 °F 54 °F - ()
Cooling Degree Days 4    
Growing Degree Days 18 (Base 50)    
Moisture  
Dew Point 39 °F    
Average Humidity 35    
Maximum Humidity 67    
Minimum Humidity 8    
Precipitation  
Precipitation 0.00 in 0.02 in - ()
Sea Level Pressure  
Sea Level Pressure 30.11 in    
Wind  
Wind Speed 3 mph ()    
Max Wind Speed 8 mph    
Max Gust Speed -    
Visibility 8.2 miles    
Events      
T = Trace of Precipitation, MM = Missing Value Source: Averaged Metar Reports

Daily Weather History Graph

Daily Weather History Graph

Search for Another Location

Airport or City:

Trip Planner

Search our weather history database for the weather conditions in past years. The results will help you decide how hot, cold, wet, or windy it might be!

Date:

Astronomy

Sep. 30, 2012 Rise Set
Actual Time 6:20 AM WET 6:13 PM WET
Civil Twilight 5:56 AM WET 6:37 PM WET
Nautical Twilight 5:28 AM WET 7:05 PM WET
Astronomical Twilight 5:00 AM WET 7:33 PM WET
Moon 6:16 PM WET (9/30) 6:33 AM WET (9/30)
Length of Visible Light 12h 41m
Length of Day
11h 52m
Full, 100% of the Moon is Illuminated
Sep 30
Full
Oct 8
Last Quarter
Oct 15
New
Oct 22
First Quarter
Oct 29
Full

Hourly Weather History & Observations

Time (WET) Temp. Dew Point Humidity Pressure Visibility Wind Dir Wind Speed Gust Speed Precip Events Conditions
12:00 AM 66.2 °F 44.6 °F 46% 30.12 in 6.2 mi WSW 8.1 mph - N/A   Partly Cloudy
1:00 AM 65 °F 44 °F 35%  in 12 mi WSW 5.8 mph - -   Scattered Clouds
1:00 AM 66.2 °F 44.6 °F 46% 30.12 in 6.2 mi WSW 5.8 mph - N/A   Partly Cloudy
2:00 AM 62.6 °F 44.6 °F 52% 30.12 in 6.2 mi West 2.3 mph - N/A   Partly Cloudy
2:00 AM 60.8 °F 44.6 °F 55% 30.09 in 6.2 mi West 2.3 mph - N/A   Partly Cloudy
3:00 AM 60 °F 45 °F 47%  in 12 mi WNW 2.3 mph - -   Scattered Clouds
3:00 AM 60.8 °F 44.6 °F 55% 30.09 in 6.2 mi WNW 2.3 mph - N/A   Partly Cloudy
4:00 AM 59.0 °F 46.4 °F 63% 30.09 in 6.2 mi NW 2.3 mph - N/A   Partly Cloudy
5:00 AM 57.2 °F 46.4 °F 67% 30.09 in 6.2 mi WNW 1.2 mph - N/A   Partly Cloudy
6:00 AM 57 °F 45 °F 55%  in 12 mi West 1.2 mph - -   Scattered Clouds
6:00 AM - - N/A% 30.12 in 6.2 mi West 1.2 mph - N/A   Partly Cloudy
7:00 AM 59.0 °F 46.4 °F 63% 30.12 in - Calm Calm - N/A   Clear
8:00 AM 59.0 °F 46.4 °F 63% 30.15 in - West 1.2 mph - N/A   Clear
9:00 AM 64 °F 45 °F 38%  in 12 mi NW 1.2 mph - -  
9:00 AM 64.4 °F 44.6 °F 49% 30.18 in - Variable 1.2 mph - N/A   Clear
10:00 AM 69.8 °F 44.6 °F 40% 30.18 in - Calm Calm - N/A   Clear
11:00 AM 73.4 °F 41.0 °F 31% 30.18 in 6.2 mi Calm Calm - N/A   Partly Cloudy
12:00 PM 75 °F 35 °F 14%  in 12 mi Calm Calm - -   Scattered Clouds
12:00 PM 75.2 °F 35.6 °F 24% 30.15 in 6.2 mi Calm Calm - N/A   Partly Cloudy
1:00 PM 77.0 °F 37.4 °F 24% 30.12 in 6.2 mi Variable 1.2 mph - N/A   Partly Cloudy
2:00 PM 78.8 °F 35.6 °F 21% 30.09 in 6.2 mi Calm Calm - N/A   Partly Cloudy
3:00 PM 79 °F 33 °F 10%  in 12 mi East 3.5 mph - -   Scattered Clouds
3:00 PM 80.6 °F 33.8 °F 18% 30.09 in 6.2 mi Variable 3.5 mph - N/A   Partly Cloudy
4:00 PM 80.6 °F 30.2 °F 16% 30.06 in 6.2 mi ENE 5.8 mph - N/A   Partly Cloudy
5:00 PM 80.6 °F 30.2 °F 16% 30.06 in 6.2 mi East 4.6 mph - N/A   Partly Cloudy
6:00 PM 80 °F 30 °F 8%  in 12 mi ENE 4.6 mph - -   Scattered Clouds
7:00 PM 77.0 °F 32.0 °F 19% 30.06 in - NE 4.6 mph - N/A   Clear
8:00 PM 77.0 °F 35.6 °F 22% 30.06 in - East 6.9 mph - N/A   Clear
9:00 PM 74 °F 32 °F 12%  in 12 mi ESE 4.6 mph - -  
9:00 PM 73.4 °F 32.0 °F 22% 30.09 in - ESE 4.6 mph - N/A   Clear
10:00 PM 73.4 °F 32.0 °F 22% 30.12 in - Variable 2.3 mph - N/A   Clear